This is the latest recevied weather packets stored in our database for station/object N5JXS. If no packets are shown the sender has not sent any weather packets the latest 10 day(s).
| Time | Temp. | Humidity | Pressure | Rain* | Wind** | Luminosity | Snow |
|---|---|---|---|---|---|---|---|
| 1777312798 | 8.33° C | 60% | 1015.1 hPa | 0 mm | - | 715 W/m² | - |
| 1777312495 | 8.33° C | 60% | 1014.9 hPa | 0 mm | - | 714 W/m² | - |
| 1777312192 | 8.89° C | 60% | 1014.9 hPa | 0 mm | - | 254 W/m² | - |
| 1777311890 | 7.78° C | 61% | 1015 hPa | 0 mm | - | 730 W/m² | - |
| 1777311586 | 7.78° C | 63% | 1014.8 hPa | 0 mm | - | 770 W/m² | - |
| 1777311284 | 7.78° C | 64% | 1014.8 hPa | 0 mm | - | 762 W/m² | - |
| 1777310982 | 7.78° C | 63% | 1014.6 hPa | 0 mm | - | 670 W/m² | - |
| 1777310679 | 7.22° C | 63% | 1014.6 hPa | 0 mm | - | 683 W/m² | - |
| 1777310376 | 7.22° C | 63% | 1014.8 hPa | 0 mm | - | 270 W/m² | - |
| 1777310073 | 7.78° C | 62% | 1014.6 hPa | 0 mm | - | 832 W/m² | - |
| 1777309772 | 7.78° C | 61% | 1014.6 hPa | 0 mm | - | 380 W/m² | - |
| 1777309469 | 7.78° C | 60% | 1014.5 hPa | 0 mm | - | 265 W/m² | - |
| 1777309166 | 7.78° C | 61% | 1014.6 hPa | 0 mm | - | 707 W/m² | - |
| 1777308864 | 7.78° C | 60% | 1014.8 hPa | 0 mm | - | 675 W/m² | - |
| 1777308559 | 7.78° C | 60% | 1014.6 hPa | 0 mm | - | 624 W/m² | - |
| 1777308255 | 6.67° C | 63% | 1014.8 hPa | 0 mm | - | 598 W/m² | - |
| 1777307950 | 6.67° C | 64% | 1014.5 hPa | 0 mm | - | 590 W/m² | - |
| 1777307649 | 6.67° C | 66% | 1014.4 hPa | 0 mm | - | 579 W/m² | - |
| 1777307345 | 6.67° C | 64% | 1014.4 hPa | 0 mm | - | 567 W/m² | - |
| 1777307042 | 6.11° C | 66% | 1014.6 hPa | 0 mm | - | 581 W/m² | - |
| 1777306740 | 6.11° C | 66% | 1014.5 hPa | 0 mm | - | 272 W/m² | - |
| 1777306437 | 5.56° C | 67% | 1014 hPa | 0 mm | - | 333 W/m² | - |
| 1777306131 | 5.56° C | 68% | 1014.3 hPa | 0 mm | - | 202 W/m² | - |
| 1777305827 | 5.56° C | 69% | 1014.1 hPa | 0 mm | - | 61 W/m² | - |
| 1777305523 | 5.56° C | 68% | 1014.3 hPa | 0 mm | - | 42 W/m² | - |
* Rain latest hour (hover to see other rain measurements)
** Current wind speed in m/s (hover to see current wind gust speed)